Guntersville Observed Data For Previous 48 Hours

Caption
Day and Hour Reservoir Elevation (behind dam)* Tailwater Elevation (below dam)* Average Hourly Discharge*
1/16/2019 1 AM CST 593.81 562.28 100,574
1/16/2019 2 AM CST 593.78 562.29 100,524
1/16/2019 3 AM CST 593.77 562.26 100,501
1/16/2019 4 AM CST 593.77 562.27 100,454
1/16/2019 5 AM CST 593.74 562.27 100,325
1/16/2019 6 AM CST 593.73 562.27 100,464
1/16/2019 7 AM CST 593.71 562.25 100,431
1/16/2019 8 AM CST 593.71 562.26 100,304
1/16/2019 9 AM CST 593.68 562.24 100,342
1/16/2019 10 AM CST 593.69 562.23 100,329
1/16/2019 11 AM CST 593.69 562.22 100,228
1/16/2019 12 PM CST 593.68 562.21 100,285
1/16/2019 1 PM CST 593.70 562.24 100,276
1/16/2019 2 PM CST 593.69 562.23 100,362
1/16/2019 3 PM CST 593.71 562.21 100,462
1/16/2019 4 PM CST 593.70 562.22 100,465
1/16/2019 5 PM CST 593.71 562.22 100,519
1/16/2019 6 PM CST 593.72 562.23 100,521
1/16/2019 7 PM CST 593.74 562.22 100,555
1/16/2019 8 PM CST 593.71 562.22 100,495
1/16/2019 9 PM CST 593.73 562.23 100,526
1/16/2019 10 PM CST 593.74 562.24 100,555
1/16/2019 11 PM CST 593.72 562.20 100,526
1/17/2019 12 AM CST 593.73 562.23 100,511
1/17/2019 1 AM CST 593.71 562.21 100,461
1/17/2019 2 AM CST 593.71 562.18 100,419
1/17/2019 3 AM CST 593.71 562.21 100,431
1/17/2019 4 AM CST 593.70 562.20 100,445
1/17/2019 5 AM CST 593.66 562.20 100,376
1/17/2019 6 AM CST 593.68 562.18 100,457
1/17/2019 7 AM CST 593.66 562.15 100,401
1/17/2019 8 AM CST 593.63 562.18 100,359
1/17/2019 9 AM CST 593.65 562.15 100,138
1/17/2019 10 AM CST 593.60 562.16 99,921
1/17/2019 11 AM CST 593.64 562.18 100,264
1/17/2019 12 PM CST 593.64 562.12 99,816
1/17/2019 1 PM CST 593.64 562.18 100,273
1/17/2019 2 PM CST 593.64 562.18 100,324
1/17/2019 3 PM CST 593.61 562.17 100,298
1/17/2019 4 PM CST 593.62 562.17 100,271
1/17/2019 5 PM CST 593.64 562.17 100,275
1/17/2019 6 PM CST 593.63 562.18 100,313
1/17/2019 7 PM CST 593.61 - 999.00 100,223
1/17/2019 8 PM CST 593.62 - 999.00 100,249
1/17/2019 9 PM CST 593.62 562.18 100,249
1/17/2019 10 PM CST 593.64 562.18 100,288
1/17/2019 11 PM CST 593.64 562.19 100,283

Elevations are in feet above sea level. Discharges are in cubic feet per second and are reported at the end of the hour.